TimeAKDT,TemperatureF,Dew PointF,Humidity,Sea Level PressureIn,VisibilityMPH,Wind Direction,Wind SpeedMPH,Gust SpeedMPH,PrecipitationIn,Events,Conditions,WindDirDegrees,DateUTC
12:18 AM,-2.2,-5.8,85,29.96,10.0,Calm,Calm,-,N/A,,Mostly Cloudy,0,2013-03-21 08:18:00
12:27 AM,-2.2,-7.6,78,29.96,10.0,Calm,Calm,-,N/A,,Mostly Cloudy,0,2013-03-21 08:27:00
12:41 AM,-4.0,-9.4,78,29.97,9.0,NE,4.6,-,N/A,,Overcast,50,2013-03-21 08:41:00
12:52 AM,-5.1,-9.0,83,30.00,8.0,NNE,4.6,-,N/A,,Overcast,30,2013-03-21 08:52:00
1:05 AM,-4.0,-7.6,85,29.97,7.0,North,4.6,-,N/A,,Overcast,10,2013-03-21 09:05:00
1:33 AM,-2.2,-7.6,78,29.97,3.0,NE,4.6,-,N/A,Snow,Light Snow,50,2013-03-21 09:33:00
1:52 AM,-0.9,-6.0,79,30.01,4.0,Calm,Calm,-,N/A,Snow,Light Snow,0,2013-03-21 09:52:00
2:29 AM,-0.4,-5.8,78,29.98,2.5,NE,3.5,-,N/A,Snow,Light Snow,50,2013-03-21 10:29:00
2:39 AM,1.4,-2.2,85,29.98,1.5,ENE,3.5,-,N/A,Snow,Light Snow,70,2013-03-21 10:39:00
2:44 AM,1.4,-2.2,85,29.98,2.0,Calm,Calm,-,N/A,Snow,Light Snow,0,2013-03-21 10:44:00
2:52 AM,1.9,-2.9,80,30.01,1.0,Calm,Calm,-,N/A,Snow,Light Snow,0,2013-03-21 10:52:00
3:06 AM,3.2,-0.4,85,29.99,3.0,East,3.5,-,N/A,Snow,Light Snow,100,2013-03-21 11:06:00
3:17 AM,5.0,1.4,85,29.99,6.0,ESE,4.6,-,N/A,Snow,Light Snow,110,2013-03-21 11:17:00
3:33 AM,3.2,1.4,92,29.99,2.0,ESE,5.8,-,N/A,Snow,Light Snow,110,2013-03-21 11:33:00
3:35 AM,3.2,1.4,92,29.99,1.5,ESE,5.8,-,N/A,Snow,Light Snow,110,2013-03-21 11:35:00
3:52 AM,6.1,1.9,83,30.02,1.2,ESE,4.6,-,N/A,Snow,Light Snow,110,2013-03-21 11:52:00
4:03 AM,6.8,1.4,79,29.99,1.2,ESE,4.6,-,N/A,Snow,Light Snow,110,2013-03-21 12:03:00
4:11 AM,6.8,1.4,79,29.99,2.0,East,5.8,-,N/A,Snow,Light Snow,100,2013-03-21 12:11:00
4:23 AM,6.8,1.4,79,29.99,1.5,East,6.9,-,N/A,Snow,Light Snow,100,2013-03-21 12:23:00
4:29 AM,6.8,1.4,79,29.99,2.0,East,6.9,-,N/A,Snow,Light Snow,100,2013-03-21 12:29:00
4:37 AM,6.8,1.4,79,29.99,6.0,ESE,4.6,-,N/A,,Overcast,110,2013-03-21 12:37:00
4:52 AM,7.0,3.0,84,30.01,7.0,ESE,5.8,-,N/A,Snow,Light Snow,110,2013-03-21 12:52:00
5:24 AM,6.8,1.4,79,30.00,2.5,East,6.9,-,N/A,Snow,Light Snow,100,2013-03-21 13:24:00
5:52 AM,6.1,1.9,83,30.02,2.0,ESE,4.6,-,N/A,Snow,Light Snow,110,2013-03-21 13:52:00
6:00 AM,5.0,1.4,85,30.00,1.5,ESE,4.6,-,N/A,Snow,Light Snow,120,2013-03-21 14:00:00
6:05 AM,6.8,1.4,79,30.00,3.0,ESE,5.8,-,N/A,Snow,Light Snow,110,2013-03-21 14:05:00
6:38 AM,6.8,1.4,79,30.00,1.8,ESE,6.9,-,N/A,Snow,Light Snow,120,2013-03-21 14:38:00
6:52 AM,6.1,3.0,87,30.03,1.2,ESE,5.8,-,N/A,Snow,Light Snow,110,2013-03-21 14:52:00
7:04 AM,6.8,1.4,79,30.01,1.8,ESE,8.1,-,N/A,Snow,Light Snow,110,2013-03-21 15:04:00
7:27 AM,3.2,1.4,92,30.02,2.0,ESE,8.1,-,N/A,Snow,Light Snow,120,2013-03-21 15:27:00
7:37 AM,5.0,1.4,85,30.02,3.0,ESE,8.1,-,N/A,Snow,Light Snow,120,2013-03-21 15:37:00
7:52 AM,5.0,1.0,84,30.04,2.0,ESE,6.9,-,N/A,Snow,Light Snow,110,2013-03-21 15:52:00
8:04 AM,5.0,1.4,85,30.02,1.5,ESE,6.9,-,N/A,Snow,Light Snow,110,2013-03-21 16:04:00
8:13 AM,5.0,1.4,85,30.03,0.8,ESE,6.9,-,N/A,Snow,Light Snow,120,2013-03-21 16:13:00
8:16 AM,3.2,1.4,92,30.02,3.0,ESE,5.8,-,N/A,Snow,Light Snow,120,2013-03-21 16:16:00
8:52 AM,5.0,1.0,84,30.06,2.0,ESE,3.5,-,N/A,Snow,Light Snow,120,2013-03-21 16:52:00
8:59 AM,3.2,1.4,92,30.04,1.2,ESE,4.6,-,N/A,Snow,Light Snow,120,2013-03-21 16:59:00
9:19 AM,5.0,1.4,85,30.04,1.2,Calm,Calm,-,N/A,Snow,Light Snow,0,2013-03-21 17:19:00
9:26 AM,5.0,1.4,85,30.04,2.5,Calm,Calm,-,N/A,Snow,Light Snow,0,2013-03-21 17:26:00
9:52 AM,5.0,1.9,87,30.07,2.5,SE,4.6,-,N/A,Snow,Light Snow,130,2013-03-21 17:52:00
10:02 AM,5.0,1.4,85,30.05,2.5,ESE,4.6,-,N/A,Snow,Light Snow,120,2013-03-21 18:02:00
10:41 AM,6.8,1.4,79,30.05,1.8,East,3.5,-,N/A,Snow,Light Snow,100,2013-03-21 18:41:00
10:52 AM,6.1,1.9,83,30.08,2.0,ESE,3.5,-,N/A,Snow,Light Snow,110,2013-03-21 18:52:00
11:33 AM,6.8,3.2,85,30.06,8.0,Calm,Calm,-,N/A,,Overcast,0,2013-03-21 19:33:00
11:52 AM,9.0,3.9,80,30.09,10.0,Calm,Calm,-,N/A,,Overcast,0,2013-03-21 19:52:00
12:52 PM,10.0,3.0,73,30.10,9.0,Calm,Calm,-,N/A,,Overcast,0,2013-03-21 20:52:00
1:02 PM,10.4,3.2,73,30.07,1.8,Calm,Calm,-,N/A,Snow,Light Snow,0,2013-03-21 21:02:00
1:18 PM,10.4,3.2,73,30.07,2.5,Calm,Calm,-,N/A,Snow,Light Snow,0,2013-03-21 21:18:00
1:23 PM,10.4,3.2,73,30.07,4.0,Calm,Calm,-,N/A,Snow,Light Snow,0,2013-03-21 21:23:00
1:52 PM,12.9,5.0,71,30.10,10.0,Calm,Calm,-,N/A,,Mostly Cloudy,0,2013-03-21 21:52:00
2:52 PM,12.9,3.9,67,30.10,10.0,Calm,Calm,-,N/A,,Overcast,0,2013-03-21 22:52:00
3:52 PM,12.9,5.0,71,30.09,10.0,Calm,Calm,-,N/A,,Overcast,0,2013-03-21 23:52:00
4:41 PM,12.2,6.8,79,30.05,7.0,ESE,4.6,-,N/A,,Overcast,120,2013-03-22 00:41:00
4:52 PM,12.9,8.1,81,30.08,2.0,ESE,4.6,-,N/A,Snow,Light Snow,120,2013-03-22 00:52:00
4:59 PM,12.2,8.6,85,30.05,1.0,Calm,Calm,-,N/A,Snow,Light Snow,0,2013-03-22 00:59:00
5:31 PM,14.0,10.4,86,30.05,2.0,Calm,Calm,-,N/A,,Overcast,0,2013-03-22 01:31:00
5:41 PM,14.0,8.6,79,30.05,1.5,Calm,Calm,-,N/A,Snow,Light Snow,0,2013-03-22 01:41:00
5:52 PM,15.1,10.0,80,30.07,1.5,Calm,Calm,-,N/A,Snow,Light Snow,0,2013-03-22 01:52:00
6:00 PM,15.8,10.4,79,30.04,2.0,Calm,Calm,-,N/A,Snow,Light Snow,0,2013-03-22 02:00:00
6:22 PM,12.2,8.6,85,30.04,10.0,Calm,Calm,-,N/A,,Mostly Cloudy,0,2013-03-22 02:22:00
6:52 PM,14.0,9.0,80,30.05,10.0,Calm,Calm,-,N/A,,Partly Cloudy,0,2013-03-22 02:52:00
7:52 PM,12.9,7.0,77,30.04,10.0,East,5.8,-,N/A,,Overcast,80,2013-03-22 03:52:00
8:52 PM,12.9,6.1,74,30.01,10.0,East,3.5,-,N/A,,Overcast,80,2013-03-22 04:52:00
9:52 PM,16.0,8.1,71,30.00,10.0,East,8.1,-,N/A,,Overcast,90,2013-03-22 05:52:00
10:40 PM,15.8,10.4,79,29.97,2.5,East,9.2,-,N/A,Snow,Light Snow,90,2013-03-22 06:40:00
10:52 PM,16.0,10.9,81,29.99,2.0,East,10.4,-,N/A,Snow,Light Snow,90,2013-03-22 06:52:00
10:59 PM,15.8,10.4,79,29.97,1.8,East,10.4,-,N/A,Snow,Light Snow,90,2013-03-22 06:59:00
11:08 PM,15.8,10.4,79,29.96,2.0,East,9.2,-,N/A,Snow,Light Snow,100,2013-03-22 07:08:00
11:17 PM,15.8,12.2,86,29.95,1.8,East,9.2,-,N/A,Snow,Light Snow,90,2013-03-22 07:17:00
11:35 PM,15.8,12.2,86,29.95,2.5,East,9.2,-,N/A,Snow,Light Snow,90,2013-03-22 07:35:00
11:52 PM,17.1,12.0,81,29.97,2.0,East,8.1,-,N/A,Snow,Light Snow,90,2013-03-22 07:52:00